Wuhan Tianhe International Airport

Airport
ICAO code: 
ZHHH
IATA Code: 
WUH
Summary
ICAO Region: 
APAC
Territory: 
Location: 
Wuhan, Hubei
Serving: 
Wuhan
Elevation: 
113 ft
Coordinates: 
Aerial View: 
30° 47' 1" N, 114° 12' 29.002" E
Metar
Observation
ZHHH 040700Z 13002MPS 070V180 CAVOK 17/M03 Q1025 NOSIG
Station
Wuhan
Date/Time
2021-12-04 07:00:00
Wind direction
130°
Lowest cloud amount
clouds and visibility OK
Temperature
17°C
Dew point
-3°C
Humidity
25%
QNH
1025 hPa
Weather condition
n/a

Description

Wuhan Tianhe International Airport serves Wuhan, the capital of the Hubei Province, China. The airport is located around 26 km to the north of Wuhan city center.

Climatology

Humid subtropical climate (Köppen climate classification Cfa.) Hot muggy summers with frequent thunderstorms. Winters are mild and precipitation during this season comes from mid-latitude cyclones. This climate type is quite common on the east coasts of continents.

Runways

Designator Length Width Surface Rops
4/22 3400 45 CON Yes/Yes
Airport map: 
Aerial View: 

SKYbrary Partners:

Safety knowledge contributed by: